Regional Weather Roundup
Issued by NWS

Home | Current Version | Previous Version | Text Only | Print | Product List | Glossary On
Versions: 1 2 3 4 5 6 7 8 9 10 11 12 13 14 15 16 17 18 19 20 21 22 23 24 25 26 27 28 29 30 31 32 33 34 35 36 37 38 39 40 41 42 43 44 45 46 47 48 49 50
000
ASUS43 KLMK 160802
RWRKY
KENTUCKY REGIONAL WEATHER ROUNDUP
NATIONAL WEATHER SERVICE LOUISVILLE KY
300 AM EST TUE JAN 16 2018

NOTE "FAIR" INDICATES FEW OR NO CLOUDS BELOW 12,000 FEET
WITH NO SIGNIFICANT WEATHER AND/OR OBSTRUCTIONS TO VISIBILITY.

KYZ001>023-026-027-061>063-070>075-160900-
WESTERN AND SOUTH CENTRAL KENTUCKY

CITY           SKY/WX    TMP DP  RH WIND       PRES   REMARKS
PADUCAH        MIX PCPN  13   0  56 NW12      30.58R WCI  -1
HENDERSON      FAIR      11   1  64 NW13      30.58R WCI  -4
OWENSBORO      CLOUDY    11   3  70 NW13G23   30.56R WCI  -4
HOPKINSVILLE   CLOUDY    14   9  83 NW8       30.53R BLWGSNOWWCI   2
BOWLING GREEN  LGT SNOW  17  14  88 NW5       30.52R FOG     WCI  10
GLASGOW        NOT AVBL
$$

KYZ024-025-028>034-038-045-046-053-160900-
NORTH CENTRAL KENTUCKY

CITY           SKY/WX    TMP DP  RH WIND       PRES   REMARKS
LOUISVILLE/SDF LGT SNOW  15  10  80 NW10      30.50R WCI   2
LOUISVILLE/LOU LGT SNOW  15   9  76 NW12G17   30.50R WCI   2
FORT KNOX      CLOUDY    14  10  84 NW7       30.46R BLWGSNOWWCI   3
$$

KYZ035>037-039>044-047>052-055>060-089>105-160900-
NORTHEAST KENTUCKY

CITY           SKY/WX    TMP DP  RH WIND       PRES   REMARKS
LEXINGTON      LGT SNOW  16  11  80 NW9       30.43R WCI   4
COVINGTON      CLOUDY    13   7  77 W10       30.42R WCI   0
FRANKFORT      LGT SNOW  15   9  76 NW8       30.44R WCI   4
$$

KYZ054-064>069-076>088-106>120-160900-
SOUTHEAST KENTUCKY

CITY           SKY/WX    TMP DP  RH WIND       PRES   REMARKS
JACKSON        CLOUDY    30  25  81 NW7       30.34R WCI  23
LONDON         CLOUDY    29  24  82 NW8       30.36R WCI  21
SOMERSET       NOT AVBL
MIDDLESBORO    CLOUDY    30  27  88 CALM      30.34R
MONTICELLO     FLURRIES  26  23  88 NW12      30.42R WCI  16
$$





USA.gov is the U.S. government's official web portal to all federal, state and local government web resources and services.